Location: Angwan Shehu
(11.2514°N, 7.4613°E)
Time: 21:24:42
(UTC+00:00)

Vanguard 2 - All Passes

Search period start: 17 April 2021 00:00
Search period end: 27 April 2021 00:00
Orbit: 552 x 2938 km, 32.9° (Epoch: 17 April)

Date Brightness Start Highest point End Pass type
(mag) Time Alt. Az. Time Alt. Az. Time Alt. Az.
17 Apr - 06:57:21 10° S 07:09:23 23° SE 07:21:50 10° E daylight
17 Apr - 09:05:20 10° SW 09:22:52 61° SE 09:37:44 10° ENE daylight
17 Apr - 11:18:17 10° WSW 11:35:39 64° NNW 11:47:46 10° NE daylight
17 Apr - 13:36:33 10° WNW 13:47:53 28° NNW 13:55:43 10° NNE daylight
17 Apr - 15:55:55 10° NW 16:00:13 14° N 16:03:44 10° NNE daylight
17 Apr - 18:07:26 10° NNW 18:11:33 19° NNE 18:14:49 10° ENE visible
17 Apr - 20:16:08 10° WNW 20:20:26 65° SW 20:24:21 10° SE visible
18 Apr - 07:13:48 10° SSW 07:27:42 31° SE 07:41:58 10° E daylight
18 Apr - 09:22:55 10° SW 09:40:56 75° SE 09:55:55 10° ENE daylight
18 Apr - 11:37:06 10° WSW 11:53:45 52° NNW 12:05:25 10° NE daylight
18 Apr - 13:56:24 10° WNW 14:06:21 23° NNW 14:13:27 10° NNE daylight
18 Apr - 16:14:19 10° NNW 16:18:52 15° N 16:22:28 10° NE daylight
18 Apr - 18:24:47 10° NW 18:29:44 29° NNE 18:33:29 10° E visible
18 Apr - 20:34:20 10° W 20:38:05 31° SW 20:41:39 10° SSE visible
19 Apr - 05:27:38 10° SSE 05:32:23 12° SE 05:37:25 10° SE daylight
19 Apr - 07:30:36 10° SSW 07:45:49 41° SE 08:01:20 10° E daylight
19 Apr - 09:40:47 10° SW 09:58:58 89° NW 10:13:54 10° ENE daylight
19 Apr - 11:56:15 10° W 12:11:57 43° NNW 12:23:03 10° NE daylight
19 Apr - 14:16:09 10° WNW 14:24:58 21° NNW 14:31:24 10° NNE daylight
19 Apr - 16:32:15 10° NNW 16:37:26 18° N 16:41:24 10° NE daylight
19 Apr - 18:42:18 10° NW 18:47:46 47° NNE 18:51:46 10° ESE visible
19 Apr - 20:53:14 10° WSW 20:55:45 16° SW 20:58:14 10° S visible
20 Apr - 05:41:52 10° S 05:50:54 18° SE 06:00:59 10° ESE daylight
20 Apr - 07:47:42 10° SW 08:03:51 53° SE 08:20:09 10° ENE daylight
20 Apr - 09:58:57 10° WSW 10:17:03 74° NNW 10:31:43 10° NE daylight
20 Apr - 12:15:44 10° W 12:30:20 36° NNW 12:40:45 10° NE daylight
20 Apr - 14:35:36 10° NW 14:43:42 20° N 14:49:39 10° NE daylight
20 Apr - 16:49:56 10° NW 16:55:56 22° NNE 17:00:15 10° ENE daylight
20 Apr - 19:00:02 10° WNW 19:05:36 87° NNE 19:09:40 10° ESE visible
21 Apr - 05:57:46 10° S 06:09:07 25° SE 06:22:08 10° E daylight
21 Apr - 08:05:04 10° SW 08:21:50 66° SE 08:38:35 10° ENE daylight
21 Apr - 10:17:27 10° WSW 10:35:12 62° NNW 10:49:28 10° NE daylight
21 Apr - 12:35:26 10° WNW 12:48:53 31° NNW 12:58:35 10° NE daylight
21 Apr - 14:54:35 10° NW 15:02:27 20° N 15:08:11 10° NE daylight
21 Apr - 17:07:33 10° NW 17:14:17 30° NNE 17:18:52 10° E daylight
21 Apr - 19:18:05 10° WNW 19:23:16 49° SW 19:27:12 10° SE visible
22 Apr - 06:14:15 10° SSW 06:27:07 34° SE 06:42:08 10° E daylight
22 Apr - 08:22:43 10° SW 08:39:50 81° SE 08:56:45 10° ENE daylight
22 Apr - 10:36:17 10° W 10:53:30 51° NNW 11:07:12 10° NE daylight
22 Apr - 12:55:12 10° WNW 13:07:36 27° NNW 13:16:34 10° NE daylight
22 Apr - 15:13:06 10° NW 15:21:10 22° N 15:26:54 10° NE daylight
22 Apr - 17:25:13 10° NW 17:32:29 43° NNE 17:37:12 10° E daylight
22 Apr - 19:36:34 10° W 19:40:48 25° SW 19:44:15 10° SSE visible
23 Apr - 04:29:06 10° SSE 04:32:56 11° SE 04:37:05 10° SE visible
23 Apr - 06:31:06 10° SSW 06:45:00 44° SE 07:01:25 10° ENE daylight
23 Apr - 08:40:37 10° WSW 08:57:53 84° NW 09:14:45 10° NE daylight
23 Apr - 10:55:27 10° W 11:11:56 43° NNW 11:24:59 10° NE daylight
23 Apr - 13:14:50 10° WNW 13:26:26 25° N 13:34:49 10° NE daylight
23 Apr - 15:31:14 10° NW 15:39:49 26° N 15:45:38 10° ENE daylight
23 Apr - 17:42:59 10° NW 17:50:29 68° NNE 17:55:14 10° ESE daylight
23 Apr - 19:56:02 10° WSW 19:58:18 13° SW 20:00:21 10° SSW visible
24 Apr - 04:43:05 10° S 04:51:06 18° SE 05:00:38 10° ESE visible
24 Apr - 06:48:15 10° SW 07:02:51 57° SE 07:20:11 10° ENE daylight
24 Apr - 08:58:49 10° WSW 09:16:04 70° NNW 09:32:37 10° NE daylight
24 Apr - 11:14:53 10° W 11:30:33 37° NNW 11:42:53 10° NE daylight
24 Apr - 13:34:09 10° NW 13:45:19 25° N 13:53:18 10° NE daylight
24 Apr - 15:49:12 10° NW 15:58:20 32° NNE 16:04:14 10° ENE daylight
24 Apr - 18:00:57 10° WNW 18:08:16 74° SW 18:12:56 10° SE visible
25 Apr - 04:58:59 10° S 05:09:00 26° SE 05:21:38 10° E daylight
25 Apr - 07:05:40 10° SW 07:20:44 72° SE 07:38:36 10° ENE daylight
25 Apr - 09:17:20 10° WSW 09:34:23 58° NNW 09:50:27 10° NE daylight
25 Apr - 11:34:29 10° WNW 11:49:22 33° NNW 12:00:57 10° NE daylight
25 Apr - 13:53:04 10° NW 14:04:12 26° N 14:11:58 10° ENE daylight
25 Apr - 16:07:02 10° NW 16:16:42 43° NNE 16:22:38 10° E daylight
25 Apr - 18:19:13 10° WNW 18:25:50 42° SW 18:30:17 10° SSE visible
26 Apr - 05:15:29 10° SSW 05:26:44 35° SE 05:41:32 10° E daylight
26 Apr - 07:23:20 10° SW 07:38:41 87° SE 07:56:47 10° ENE daylight
26 Apr - 09:36:09 10° W 09:52:52 49° NNW 10:08:19 10° NE daylight
26 Apr - 11:54:06 10° WNW 12:08:19 30° N 12:19:13 10° NE daylight
26 Apr - 14:11:37 10° NW 14:23:01 30° N 14:30:42 10° ENE daylight
26 Apr - 16:24:54 10° NW 16:34:52 60° NNE 16:40:46 10° ESE daylight
26 Apr - 18:37:59 10° W 18:43:16 24° SW 18:47:09 10° SSE visible
